Location: Kosice
(48.7170°N, 21.2500°E)
Time: 04:07:27
(UTC+02:00)

ISS - Pass Details

Date: 25 March 2019
Orbit: 408 x 410 km, 51.6° (Epoch: 21 April)

Event Time Altitude Azimuth Distance (km) Brightness Sun altitude
Rises 18:37:45 0° 233° (SW) 2,328 0.7 -7.9°
Reaches altitude 10° 18:39:51 10° 228° (SW) 1,469 -0.5 -8.2°
Maximum altitude 18:43:04 52° 151° (SSE) 514 -3.6 -8.7°
Enters shadow 18:46:15 10° 74° (ENE) 1,457 -1.5 -9.2°
